Showing default

COSMOS 2246, 22647

Orbit data source: Space-Track

COSMOS 2246, 22647 is a payload satellite owned by VKS (CIS) in LEO that was launched on Tue, 11 May 1993 UTC via a TSIKLON-3 launch vehicle from the Plesetsk Missile And Space Complex (PKMTR). Payload-class satellites include a variety of spacecraft equipped with specific instruments for various scientific and technological missions. These include communications satellites like Starlink; space stations such as the ISS; scientific satellites like the Hubble; Earth observation satellites from companies like Planet Labs, Umbra, and HawkEye 360; GPS; miniature CubeSats for education and research; and military/defense satellites.

Loading next visibility...
Identifier
22647, 1993-030B
Orbit
LEO
Country
Flag of CISCIS
Related business
Manufacturer
NPO PM
Mission
Defense Communications
Bus & Motor
STRELA-3, Unknown motor
Mass
225 kg wet, 225 kg dry
Launch date (UTC)
1993-05-11 (32 years ago)
Launch vehicle
TSIKLON-3
Launch site
Plesetsk Missile And Space Complex (PKMTR)
Object type
Payload
Rocket body
Debris
Shape & HBR
Cyl, 0.8 m
Radar Cross Section
1.257 m², Medium (>0.1 m² and < 1m²)

Expand to show TLE details & history
Last TLE update: 22 hours ago

TLE from 22 hours ago
0 COSMOS 2246
1 22647U 93030B   25309.16191732  .00000009  00000-0 -11906-4 0  9996
2 22647  82.5821  99.9877 0010641  65.8481 294.3723 12.63629334498237
Epoch: 2025-11-05T03:53Z
TLE epoch observation values (Epoch: 2025-11-05T03:53:09.656Z)
Latitude
0.00004°
Longitude
-2.94108°
Altitude
1,407.319 km
Speed
7.158 km/s
True Right ascension
06h 39m 57s
True Declination
0° 00' 00"
Sunlit
Object was in daylight at epoch
Visualization orbit readout
Latitude
Unknown
Longitude
Unknown
Altitude
Unknown
Speed
Unknown
Apparent Right ascension
Unknown
Apparent Declination
Unknown
Sunlit
N/A
Visualization observer readout
Local Sidereal Time
21:44:28
Azimuth
Unknown
Elevation
Unknown
Doppler factor
Unknown
Orbital elements
Apogee altitude
1,413.601 km
Perigee altitude
1,397.036 km
Semi-major axis
7,783.456 km
Eccentricity
0.00106
Inclination
82.5821°
RAAN
99.9877°
Arg. of periapsis
65.8481°
True anomaly
294.26117°
Mean anomaly
294.3723°
Eccentric anomaly
294.31674°
Mean motion
3.16071 °/min
Orbital period
113.9 mins
BSTAR
-0.000011906
Loading maneuver chart data...
Computing Atmospheric mass density...
Loading historical data...
Loading historical data...
Loading historical data...
Loading historical data...
Loading historical data...
Loading historical data...
Loading historical data...

Documentation

Showing up to 5 results
|